Content
SEND FEEDBACK

Daily
Averages
Monthly
Summary
United States of America

MERIZO, GUAM


Home > North America > United States > Guam
Elevation: 3 meters     Latitude: 13 14N     Longitude: 144 39E

WEATHER
 
SELECT A DAY
Number of Records: 341,716;   Date Range: 1/1/95 - 7/22/14
 
SHARE

PRINT THIS DATA

[ ← Previous Day ]
WEATHER ALMANAC - 26 APRIL, 2013
[ Next Day → ]
[ °F ]   °C
Weather ElementAverageHighLow
Temperature27 °C30 °C (1:08 pm)24.6 °C (2:55 am)
Dewpoint23.9 °C25.2 °C (9:55 am)23 °C (3:45 am)
Humidity83.7 %94 % (1:46 am)70 % (1:08 pm)
Barometer1000.7 hPa1012.2 hPa (9:10 am) (7:00 pm)
Wind Speed18 km/h27.8 km/h (8:59 pm)
Wind Gust31.5 km/h (9:27 am)
Weather ElementAverage
Visibility15.6 km
Wind DirectionE (89.8 °)

Weather ElementTotal
Precipitation1.78 mm
Cooling Degree Days9 (Base 18.3)
Growing Degree Days17.3 (Base 10)
Averaged from 105 records on 26 April, 2013
WEATHER CONDITIONS BREAKOUT
WIND DIRECTION BREAKOUT
WEATHER BY HOUR - 26 APRIL, 2013
[ °F ]   °C
Local TimeTemperatureDewpointHumidityBarometerVisibilityWind DirectionWind SpeedGust SpeedPrecipitationEventsConditions
12:55 AM25.6 °C23.8 °C90 %1010.8 hPa16.1 kmENE (60°)20.4 km/hScattered Clouds
1:46 AM25 °C24 °C94 %1010.5 hPa16.1 kmENE (70°)13 km/hMostly Cloudy
1:55 AM25.4 °C24.1 °C92 %1010.5 hPa16.1 kmENE (60°)24.1 km/h0 mmLight Drizzle
2:03 AM25 °C24 °C94 %1010.5 hPa11.3 kmEast (90°)18.5 km/hRainLight Rain
2:04 AM25 °C24 °C94 %1010.5 hPa11.3 kmEast (80°)16.7 km/hRainLight Rain
2:23 AM25 °C24 °C94 %1010.2 hPa14.5 kmENE (70°)16.7 km/hMostly Cloudy
2:55 AM24.6 °C23.4 °C93 %1010.2 hPa16.1 kmENE (70°)13 km/h0.51 mmPartly Cloudy
3:15 AM25 °C24 °C94 %1010.2 hPa16.1 kmEast (80°)13 km/hMostly Cloudy
3:45 AM25 °C23 °C89 %1009.8 hPa16.1 kmEast (100°)16.7 km/hScattered Clouds
3:55 AM25.4 °C23.4 °C89 %1009.8 hPa16.1 kmEast (90°)18.5 km/hScattered Clouds
4:02 AM26 °C24 °C89 %1009.8 hPa16.1 kmEast (90°)18.5 km/hMostly Cloudy
4:07 AM26 °C23 °C83 %1009.8 hPa16.1 kmEast (90°)20.4 km/hScattered Clouds
4:13 AM26 °C23 °C83 %1009.8 hPa16.1 kmEast (100°)18.5 km/hScattered Clouds
4:16 AM26 °C23 °C83 %1009.8 hPa16.1 kmEast (100°)18.5 km/hMostly Cloudy
4:32 AM26 °C24 °C89 %16.1 kmNorthScattered Clouds
4:43 AM26 °C24 °C89 %1009.8 hPa16.1 kmEast (90°)16.7 km/hMostly Cloudy
4:54 AM26 °C24 °C89 %1009.8 hPa16.1 kmEast (100°)16.7 km/hScattered Clouds
4:55 AM25.6 °C23.7 °C89 %1009.8 hPa16.1 kmESE (110°)16.7 km/hScattered Clouds
4:56 AM26 °C24 °C89 %1009.8 hPa16.1 kmEast (100°)14.8 km/hMostly Cloudy
4:59 AM26 °C24 °C89 %1010.2 hPa16.1 kmEast (100°)18.5 km/hScattered Clouds
5:03 AM25 °C23 °C89 %1010.2 hPa16.1 kmEast (90°)14.8 km/hMostly Cloudy
5:13 AM26 °C23 °C83 %1010.2 hPa16.1 kmEast (100°)18.5 km/hMostly Cloudy
5:14 AM26 °C23 °C83 %1010.2 hPa16.1 kmEast (100°)18.5 km/hScattered Clouds
5:42 AM26 °C23 °C83 %1010.2 hPa16.1 kmEast (90°)16.7 km/hMostly Cloudy
5:45 AM26 °C23 °C83 %1010.2 hPa16.1 kmEast (100°)16.7 km/hScattered Clouds
5:55 AM25.5 °C23.3 °C88 %1010.5 hPa16.1 kmEast (100°)16.7 km/hMostly Cloudy
6:01 AM26 °C23 °C83 %1010.5 hPa16.1 kmEast (90°)16.7 km/hMostly Cloudy
6:10 AM26 °C23 °C83 %1010.5 hPa16.1 kmESE (110°)14.8 km/hMostly Cloudy
6:13 AM26 °C23 °C83 %1010.5 hPa16.1 kmESE (110°)13 km/hScattered Clouds
6:21 AM26 °C24 °C89 %1010.5 hPa16.1 kmEast (100°)16.7 km/hMostly Cloudy
6:35 AM26 °C24 °C89 %1010.8 hPa16.1 kmEast (90°)16.7 km/hMostly Cloudy
6:36 AM26 °C24 °C89 %1010.8 hPa16.1 kmEast (80°)16.7 km/hMostly Cloudy
6:55 AM26.3 °C23.8 °C86 %1011.2 hPa16.1 kmEast (90°)16.7 km/hMostly Cloudy
6:57 AM26 °C24 °C89 %1011.2 hPa16.1 kmEast (90°)16.7 km/hScattered Clouds
7:55 AM27.4 °C23.9 °C81 %1011.9 hPa16.1 kmEast (80°)18.5 km/hPartly Cloudy
8:55 AM28.3 °C24.4 °C79 %1011.9 hPa16.1 kmEast (80°)20.4 km/hScattered Clouds
9:03 AM28 °C24 °C79 %1011.9 hPa16.1 kmEast (80°)20.4 km/hMostly Cloudy
9:10 AM28 °C24 °C79 %1012.2 hPa16.1 kmEast (90°)18.5 km/hMostly Cloudy
9:16 AM28 °C24 °C79 %1011.9 hPa16.1 kmEast (90°)18.5 km/hScattered Clouds
9:18 AM28 °C24 °C79 %1012.2 hPa16.1 kmEast (100°)20.4 km/hMostly Cloudy
9:20 AM28 °C24 °C79 %1012.2 hPa16.1 kmSE (130°)20.4 km/hMostly Cloudy
9:27 AM27 °C23 °C79 %1011.9 hPa16.1 kmESE (110°)14.8 km/h31.5 km/hScattered Clouds
9:50 AM28 °C24 °C79 %1011.9 hPa8 kmESE (110°)20.4 km/hRainLight Rain
9:55 AM27.1 °C25.2 °C89 %1011.9 hPa4.8 kmEast (100°)16.7 km/h0.51 mmRainLight Rain
10:02 AM27 °C25 °C89 %1011.9 hPa14.5 kmEast (100°)13 km/hPartly Cloudy
10:55 AM28.4 °C24.8 °C81 %1011.5 hPa16.1 kmEast (100°)16.7 km/h0 mmScattered Clouds
11:13 AM28 °C25 °C84 %1011.5 hPa14.5 kmESE (110°)20.4 km/hLight Drizzle
11:18 AM27 °C25 °C89 %1011.2 hPa12.9 kmESE (110°)18.5 km/hRainLight Rain
11:22 AM27 °C25 °C89 %1011.2 hPa12.9 kmESE (110°)18.5 km/hRainLight Rain
11:26 AM28 °C25 °C84 %1011.2 hPa16.1 kmESE (110°)16.7 km/hMostly Cloudy
11:34 AM28 °C25 °C84 %1011.2 hPa16.1 kmESE (120°)14.8 km/hMostly Cloudy
11:35 AM28 °C25 °C84 %1011.2 hPa16.1 kmESE (120°)16.7 km/hMostly Cloudy
11:55 AM28.8 °C25 °C80 %1011.2 hPa16.1 kmEast (100°)20.4 km/h0 mmMostly Cloudy
11:56 AM29 °C25 °C79 %1011.2 hPa16.1 kmEast (100°)22.2 km/hMostly Cloudy
12:55 PM29.5 °C24 °C72 %1010.2 hPa16.1 kmEast (90°)22.2 km/hMostly Cloudy
1:04 PM29 °C24 °C74 %1010.2 hPa16.1 kmEast (100°)18.5 km/hMostly Cloudy
1:08 PM30 °C24 °C70 %1010.2 hPa16.1 kmEast (90°)18.5 km/hMostly Cloudy
1:33 PM29 °C24 °C74 %1009.8 hPa16.1 kmEast (100°)18.5 km/hMostly Cloudy
1:49 PM30 °C24 °C70 %1009.8 hPa16.1 kmEast (100°)18.5 km/hScattered Clouds
1:55 PM29.6 °C24.3 °C73 %1009.5 hPa16.1 kmEast (90°)14.8 km/h27.8 km/hScattered Clouds
2:10 PM29 °C25 °C79 %1009.5 hPa16.1 kmEast (90°)14.8 km/h27.8 km/hMostly Cloudy
2:21 PM29 °C24 °C74 %1009.5 hPa16.1 kmEast (90°)20.4 km/h31.5 km/hMostly Cloudy
2:22 PM29 °C24 °C74 %1009.5 hPa16.1 kmEast (90°)20.4 km/hMostly Cloudy
2:47 PM29 °C24 °C74 %1009.1 hPa16.1 kmEast (100°)18.5 km/hMostly Cloudy
2:49 PM29 °C24 °C74 %1009.1 hPa16.1 kmEast (100°)16.7 km/hScattered Clouds
2:55 PM29.4 °C24.1 °C73 %1009.1 hPa16.1 kmEast (100°)20.4 km/hMostly Cloudy
3:00 PM29 °C24 °C74 %1009.1 hPa16.1 kmEast (100°)20.4 km/hScattered Clouds
3:11 PM29 °C25 °C79 %1009.1 hPa16.1 kmEast (90°)18.5 km/hMostly Cloudy
3:24 PM29 °C24 °C74 %1008.8 hPa16.1 kmEast (80°)22.2 km/hScattered Clouds
3:31 PM29 °C24 °C74 %1008.8 hPa16.1 kmESE (110°)22.2 km/hMostly Cloudy
3:35 PM29 °C24 °C74 %1008.8 hPa16.1 kmEast (100°)20.4 km/hScattered Clouds
3:55 PM29.4 °C24 °C73 %1008.5 hPa16.1 kmESE (110°)18.5 km/hPartly Cloudy
4:53 PM28 °C24 °C79 %1008.5 hPa16.1 kmEast (80°)22.2 km/hMostly Cloudy
4:54 PM28 °C24 °C79 %1008.5 hPa16.1 kmEast (80°)22.2 km/hMostly Cloudy
4:55 PM28.1 °C24.2 °C79 %1008.5 hPa16.1 kmEast (80°)22.2 km/hMostly Cloudy
4:56 PM28 °C24 °C79 %1008.5 hPa16.1 kmEast (90°)22.2 km/hScattered Clouds
5:55 PM27.2 °C23.6 °C81 %1009.1 hPa16.1 kmEast (90°)18.5 km/hPartly Cloudy
6:12 PM27 °C24 °C84 %1009.5 hPa16.1 kmEast (90°)18.5 km/hMostly Cloudy
6:18 PM27 °C24 °C84 %1009.5 hPa16.1 kmEast (80°)14.8 km/hMostly Cloudy
6:21 PM27 °C24 °C84 %1009.5 hPa16.1 kmEast (90°)13 km/hMostly Cloudy
6:25 PM27 °C24 °C84 %1009.5 hPa16.1 kmEast (80°)16.7 km/hMostly Cloudy
6:40 PM27 °C24 °C84 %1009.5 hPa16.1 kmEast (80°)18.5 km/hMostly Cloudy
6:47 PM27 °C24 °C84 %1009.5 hPa16.1 kmEast (80°)16.7 km/hScattered Clouds
6:55 PM26.6 °C23.6 °C83 %1009.8 hPa16.1 kmEast (80°)18.5 km/hScattered Clouds
7:36 PM27 °C24 °C84 %1010.2 hPa16.1 kmEast (80°)18.5 km/hMostly Cloudy
7:47 PM27 °C24 °C84 %1010.2 hPa16.1 kmEast (80°)16.7 km/hScattered Clouds
7:55 PM26.5 °C23.4 °C83 %1010.2 hPa16.1 kmEast (80°)22.2 km/hScattered Clouds
8:55 PM26.5 °C23.7 °C84 %1011.2 hPa16.1 kmEast (80°)22.2 km/hPartly Cloudy
8:59 PM26 °C24 °C89 %1011.2 hPa12.9 kmENE (70°)27.8 km/hRainRain
9:04 PM26 °C23 °C83 %1011.2 hPa9.7 kmENE (70°)14.8 km/hRainLight Rain
9:17 PM26 °C24 °C89 %1011.2 hPa14.5 kmENE (70°)11.1 km/hMostly Cloudy
9:27 PM26 °C24 °C89 %1011.2 hPa16.1 kmEast (80°)20.4 km/h27.8 km/hMostly Cloudy
9:55 PM26 °C24.1 °C89 %1011.5 hPa16.1 kmENE (70°)20.4 km/h0.76 mmMostly Cloudy
10:00 PM26 °C24 °C89 %1011.5 hPa16.1 kmEast (80°)16.7 km/hScattered Clouds
10:08 PM26 °C24 °C89 %1011.5 hPa16.1 kmEast (80°)16.7 km/hMostly Cloudy
10:31 PM26 °C24 °C89 %1011.9 hPa16.1 kmEast (80°)18.5 km/hScattered Clouds
10:33 PM26 °C24 °C89 %1011.9 hPa16.1 kmEast (80°)14.8 km/hMostly Cloudy
10:39 PM26 °C24 °C89 %1011.9 hPa16.1 kmEast (80°)16.7 km/hScattered Clouds
10:40 PM26 °C24 °C89 %1011.9 hPa16.1 kmEast (80°)14.8 km/hMostly Cloudy
10:42 PM26 °C24 °C89 %1011.9 hPa16.1 kmEast (90°)16.7 km/hMostly Cloudy
10:44 PM26 °C24 °C89 %1011.9 hPa16.1 kmEast (80°)16.7 km/hMostly Cloudy
10:47 PM26 °C24 °C89 %1011.9 hPa16.1 kmEast (90°)18.5 km/hScattered Clouds
10:55 PM26 °C24.1 °C89 %1011.9 hPa16.1 kmEast (80°)14.8 km/hScattered Clouds
11:43 PM26 °C24 °C89 %1011.5 hPa16.1 kmEast (80°)16.7 km/hMostly Cloudy
11:55 PM26 °C23.7 °C87 %1011.5 hPa16.1 kmEast (80°)18.5 km/hScattered Clouds
Hourly data recorded from PGUA, located 0 kilometers away from Merizo, Guam







STORIES FROM OUR PARTNERS